EUTELSAT 7C

Last updated on Sun Apr 12 2026 00:02:55 GMT+0000 (Coordinated Universal Time)

1 44334U 19034B 26101.23688252 .00000050 00000+0 00000+0 0 9994 2 44334 0.0691 181.4534 0003289 188.0547 282.2259 1.00271452 6162
UTC large
Height (km)
Speed (km/s)
/
Latitude / Longitude
Inclination (degrees)
Orbital Period (minutes)
Azimuth
Elevation
Range (km)
Doppler Factor

Next 0 passes for location: London (51.5072 / 0.1276)

Sorry there are no passes over London.
EUTELSAT 7C